RH
4 4 4 3 3 3 3 3 3 2 2 2 2 2 2 2 2 2 2 9 10 9 8 4 3 4 4 3 2 2 14 13 5 7 1 1 11 17 34 38 42 44 48 36 41
4 4 4 4 4 4 4 3 3 3 2 2 2 2 2 2 2 2 3 4 12 10 10 9 5 4 4 4 3 3 4 3 2 2 2 2 14 16 17 37 44 54 47 46 31
6 5 5 5 5 5 4 4 4 4 3 3 2 2 2 2 2 3 3 3 4 12 12 12 10 6 5 4 4 4 3 2 2 2 3 4 14 17 16 37 35 29 36 43 28
6 6 6 6 6 5 5 4 4 4 3 3 3 3 3 2 2 2 2 2 2 3 12 15 13 10 6 4 4 4 4 5 2 6 9 6 15 18 17 15 54 34 26 29 40
5 7 7 7 7 6 6 5 5 4 4 3 3 3 3 2 2 2 2 2 2 4 12 15 13 15 12 7 4 5 4 5 4 3 5 11 19 19 15 14 39 44 34 33 41
5 8 9 8 8 7 6 6 5 4 4 4 3 3 2 2 4 3 2 2 3 3 7 14 17 13 12 12 8 6 6 7 8 7 8 11 14 13 14 13 37 42 38 45 49
7 9 10 10 8 8 7 6 5 5 4 4 3 3 2 5 5 4 3 4 4 5 5 7 18 20 16 12 11 11 15 13 11 9 10 10 10 10 12 12 51 39 27 51 58
8 9 11 11 11 9 8 7 6 5 4 4 3 4 7 10 12 10 8 6 12 16 16 19 18 23 25 22 13 14 17 17 6 12 10 12 11 9 9 10 37 45 23 35 55
6 9 11 13 12 11 10 8 6 5 5 4 8 12 21 26 29 29 27 22 19 20 24 28 32 30 32 38 33 16 15 14 13 9 13 12 11 9 9 9 20 53 31 25 27
6 8 9 12 13 12 10 8 6 6 7 9 14 19 25 27 32 19 17 11 9 8 10 20 31 32 39 38 40 17 18 17 15 9 12 11 10 8 8 9 11 41 30 26 27
5 5 8 12 12 12 10 9 8 11 11 25 42 48 50 42 35 18 23 29 28 23 21 33 40 34 19 32 29 32 23 17 13 12 12 11 10 9 9 9 9 38 32 28 28
6 6 7 11 12 11 10 9 7 12 40 50 45 41 36 30 15 32 22 20 30 30 37 49 51 15 27 41 39 39 36 25 15 13 12 10 10 9 8 8 9 11 35 22 25
8 7 10 12 11 11 10 8 6 11 38 43 40 27 28 34 48 39 23 25 36 35 53 70 38 15 32 44 44 37 32 29 18 14 14 12 10 9 8 8 9 10 10 14 18
7 6 11 12 12 12 9 6 7 15 51 44 29 25 36 46 39 37 29 42 51 58 76 70 45 50 45 54 45 36 32 26 20 17 16 12 13 11 9 8 8 8 9 11 15
7 8 9 10 11 12 8 6 14 40 64 35 31 27 44 41 37 46 37 41 63 75 74 68 73 70 55 48 42 36 32 26 22 19 16 15 15 12 11 10 7 8 8 9 12
7 8 8 11 12 12 8 7 20 35 57 33 26 42 44 38 46 54 40 36 56 50 65 59 66 59 58 52 38 32 33 28 23 19 22 15 15 13 12 10 8 6 8 9 11
6 7 10 11 14 13 10 11 27 41 46 40 46 47 47 44 50 57 55 53 64 61 58 57 47 49 64 63 37 28 31 34 34 30 29 17 16 14 10 10 9 7 8 9 10
9 11 11 11 14 13 12 14 32 51 55 53 51 46 49 46 54 57 55 64 64 62 71 96 77 76 67 77 49 28 26 34 37 30 21 16 17 14 11 11 10 9 9 9 8
13 13 13 13 15 14 15 19 55 51 56 53 54 56 58 40 57 53 60 66 66 61 66 87 87 87 82 74 50 33 25 25 25 20 28 18 14 13 13 12 11 11 9 8 9
16 14 15 16 17 18 16 46 57 52 49 49 63 58 64 59 48 51 64 69 68 59 60 73 97 96 91 69 60 46 42 37 27 34 32 23 14 13 12 11 11 12 10 9 11
12 14 18 18 23 18 46 58 58 60 53 51 63 60 67 66 48 57 65 66 67 56 52 75 97 68 95 93 98 67 83 71 58 47 28 32 22 35 27 13 12 14 15 11 19
10 14 18 17 18 46 65 66 63 66 66 54 66 63 70 64 53 64 75 68 58 43 84 84 92 74 89 98 97 97 99 100 95 82 60 44 50 74 44 34 22 18 20 23 29
13 16 19 16 30 63 71 73 66 65 69 61 67 70 70 71 72 60 56 57 48 39 76 82 80 69 56 85 68 83 94 94 96 85 70 68 76 96 97 86 65 47 46 53 59
17 16 19 19 54 58 71 84 80 64 73 76 74 72 71 79 80 77 74 58 42 40 57 66 76 74 85 81 69 68 86 96 96 92 82 56 80 96 99 93 87 77 67 79 99
21 19 18 25 32 46 60 82 69 88 75 80 76 77 90 98 89 95 94 78 50 42 42 66 82 69 73 52 61 60 62 70 87 95 95 64 88 99 98 100 89 79 68 63 72
20 20 20 31 45 45 48 46 70 63 73 85 78 84 87 93 100 97 97 91 74 45 57 64 74 69 64 57 52 48 62 93 96 95 95 72 98 98 98 98 100 91 83 77 67
21 26 29 42 42 48 53 63 67 84 59 67 80 91 83 90 94 92 90 84 65 52 56 60 63 75 76 65 62 40 48 68 83 87 97 95 96 97 97 98 99 99 96 87 86
Wind_Speed
13 13 14 15 15 15 17 17 18 19 19 18 18 19 21 21 19 19 17 18 19 24 26 25 23 24 26 24 23 26 36 42 41 38 33 19 18 6 9 14 20 15 14 16 11
16 16 16 16 17 17 18 18 18 18 18 19 20 20 21 21 19 19 18 17 16 22 22 24 23 25 28 26 27 31 41 41 34 34 33 24 21 15 16 17 19 17 16 16 15
16 16 16 17 17 17 18 18 19 19 19 19 19 20 20 20 19 10 12 13 14 14 18 23 25 29 31 30 31 34 45 36 31 32 31 31 26 21 16 18 29 25 21 19 21
16 16 16 16 17 18 18 19 19 19 20 19 19 20 19 17 12 18 23 22 23 22 17 17 25 31 34 36 34 40 40 37 31 30 30 34 30 26 19 18 24 20 26 21 14
16 16 16 16 17 18 19 19 20 20 21 21 20 20 19 17 16 22 24 22 22 24 22 21 21 25 36 35 34 44 41 36 33 31 30 29 33 26 23 13 14 26 23 18 16
17 17 17 17 18 19 20 21 21 22 22 22 22 22 20 19 19 24 28 27 25 25 24 28 29 21 33 38 39 40 37 36 30 32 25 28 29 22 24 17 22 22 18 20 18
19 20 20 21 21 22 23 23 23 23 24 25 26 23 22 18 23 26 28 29 30 31 30 26 26 28 29 31 38 39 39 36 35 31 31 24 36 34 22 24 26 26 21 21 19
22 23 25 24 23 23 24 24 24 25 25 27 26 21 19 19 19 21 26 31 32 33 35 31 27 29 29 28 29 29 36 44 46 36 36 35 48 32 26 29 29 31 26 25 23
26 26 28 28 27 25 24 25 25 24 23 23 21 13 7 16 19 22 26 33 32 31 34 37 31 32 28 27 27 37 50 51 48 43 38 34 46 38 30 31 28 36 32 29 23
25 27 28 30 30 28 25 25 23 22 21 18 19 10 19 30 29 32 37 40 39 40 37 34 30 38 35 33 40 53 51 42 46 47 39 39 44 35 30 31 28 40 36 31 28
26 27 29 31 32 31 30 25 20 17 23 12 14 18 24 32 35 42 34 36 31 28 34 32 28 40 53 50 54 37 25 44 43 45 34 35 44 43 33 30 36 39 41 33 30
27 27 28 29 31 33 34 32 27 17 4 8 10 18 24 35 38 32 36 38 33 34 28 31 35 45 51 45 38 37 43 44 34 33 34 42 41 43 41 38 35 38 42 36 31
29 29 28 28 28 29 30 27 22 17 4 8 16 23 32 37 23 37 46 39 33 34 25 25 39 37 42 43 38 37 40 45 40 30 31 34 45 39 39 39 38 40 37 38 39
29 30 31 28 25 24 24 22 18 14 6 15 24 23 28 36 12 42 41 37 29 30 25 24 33 36 38 43 34 38 48 40 35 29 28 30 19 32 37 41 44 44 45 43 37
29 26 29 32 29 26 25 22 14 8 3 16 23 19 20 29 34 40 42 38 22 28 22 33 32 29 35 37 36 41 37 31 35 33 37 35 13 32 33 33 44 50 49 47 49
29 30 26 24 26 26 24 19 12 2 4 12 24 29 26 29 26 36 42 39 19 31 13 21 18 20 24 25 34 28 32 28 25 30 17 45 22 35 36 35 41 48 51 46 46
27 29 28 30 29 24 21 13 3 9 17 20 32 26 23 33 28 34 42 46 48 44 48 26 17 16 13 26 29 27 31 11 11 8 9 33 19 30 30 26 41 43 46 43 45
24 24 26 26 25 23 23 9 15 11 15 20 20 21 26 33 28 34 35 37 41 44 27 20 17 14 18 17 7 22 26 12 8 7 14 36 9 30 35 37 28 43 45 40 41
24 23 22 22 23 28 17 18 8 10 16 21 18 23 29 30 23 33 31 30 38 43 30 18 16 23 27 20 5 7 24 24 26 23 6 11 26 31 31 31 25 24 35 37 35
23 20 23 24 24 23 19 18 8 15 15 14 18 19 27 34 29 27 30 18 36 38 35 28 17 20 26 10 17 8 2 5 10 10 14 2 13 25 30 28 27 24 29 33 32
22 21 22 21 18 22 27 16 7 18 18 13 16 17 23 29 30 23 27 23 33 42 35 34 14 31 13 22 28 25 16 9 6 5 10 5 4 3 19 31 34 30 26 28 29
20 19 19 22 16 20 17 13 9 17 19 15 10 16 23 29 27 18 26 28 37 37 32 28 17 28 22 2 10 20 30 23 8 11 7 3 9 13 5 21 29 34 30 30 31
23 21 19 22 16 17 14 7 7 12 16 17 14 15 22 26 20 26 23 31 32 41 26 26 17 20 15 9 16 34 30 22 9 4 6 4 7 12 21 19 22 28 32 32 35
23 17 16 19 16 13 13 11 13 12 12 14 11 19 24 26 23 22 28 34 38 36 26 17 12 12 9 18 27 28 26 20 15 5 12 7 13 13 18 10 11 19 25 28 23
24 21 21 17 16 15 12 12 12 19 19 19 23 22 22 30 28 17 31 39 40 37 24 20 23 15 15 17 18 25 19 19 14 8 4 12 14 6 9 15 9 12 16 21 20
20 18 16 16 16 16 16 15 16 21 27 21 26 25 25 29 24 34 31 32 37 37 31 22 17 27 21 16 21 20 10 11 6 5 5 6 6 6 20 20 13 12 14 15 15
22 19 21 18 18 19 19 18 22 24 22 26 27 31 34 30 33 35 36 37 36 31 23 21 16 21 18 17 24 8 12 12 11 11 8 3 9 5 19 23 17 14 15 16 13
Wind_Direction
354 349 347 342 335 329 326 323 320 315 310 307 305 303 301 303 305 307 309 300 276 267 263 259 254 251 246 245 243 237 231 238 243 244 252 241 230 190 334 260 238 245 220 258 250
353 347 340 335 331 326 323 321 318 314 309 305 303 302 302 306 311 309 304 291 284 269 263 260 256 250 249 247 239 234 234 244 256 251 251 244 228 235 292 258 229 197 216 229 249
345 339 332 327 325 325 324 323 320 317 313 308 304 301 303 312 321 303 282 276 279 283 264 257 250 247 243 241 237 240 245 256 261 257 250 247 238 254 285 253 241 236 240 245 250
340 332 328 326 325 325 327 326 321 317 313 310 307 304 307 312 312 286 295 292 286 277 265 261 253 249 249 243 244 244 246 250 258 255 253 242 247 249 255 264 231 245 255 250 232
337 334 332 328 327 327 328 328 322 320 315 312 310 307 306 300 284 279 280 276 269 264 255 255 250 253 252 255 250 247 249 247 258 259 253 251 246 256 256 270 256 230 232 240 230
340 339 336 333 333 333 335 334 328 324 318 317 313 309 303 284 273 267 268 266 262 258 252 245 248 249 254 249 247 252 255 255 249 249 246 246 249 256 241 273 226 215 228 234 223
344 342 339 338 340 338 335 334 331 324 323 320 313 310 301 282 269 263 262 263 261 260 255 248 245 236 246 257 246 252 254 251 241 236 239 248 265 254 242 267 224 220 230 228 222
345 346 343 341 338 339 334 334 332 327 323 318 313 311 298 277 266 266 265 259 254 250 252 250 246 240 242 251 250 237 240 245 234 233 235 253 260 246 245 250 227 228 222 228 228
347 347 344 340 337 337 333 335 333 327 322 317 313 326 296 286 295 293 290 288 280 269 258 259 242 243 238 249 260 239 239 234 243 228 242 245 251 240 243 244 228 219 222 224 234
347 344 343 339 337 337 337 338 338 324 328 325 314 330 299 312 325 316 309 300 294 285 279 267 255 241 238 237 230 227 231 238 241 234 241 241 246 244 242 238 232 220 223 222 231
347 346 342 340 338 338 335 342 330 333 328 347 8 2 336 315 313 319 319 315 308 297 282 267 264 239 235 226 234 244 248 242 243 235 240 243 247 236 231 237 240 219 219 222 229
346 344 344 344 343 342 340 337 345 345 354 347 20 329 308 311 324 324 322 324 320 308 296 279 257 248 240 242 254 251 249 250 248 238 238 238 245 240 237 235 240 228 221 229 224
344 343 345 347 346 339 338 341 340 336 249 338 347 338 338 331 342 327 335 328 322 313 310 283 269 257 251 245 249 247 242 243 241 240 236 247 254 251 234 238 237 232 235 237 233
345 343 343 345 343 346 342 342 336 329 196 336 344 352 347 334 340 339 344 334 325 306 307 280 283 258 253 251 233 244 232 242 239 236 249 236 256 252 247 241 233 234 230 231 231
343 347 344 346 347 349 352 348 346 342 64 345 341 343 356 349 331 348 353 349 336 310 293 277 283 268 249 243 230 240 236 240 235 236 243 253 261 259 254 251 238 229 228 229 231
344 344 347 345 348 354 355 348 355 26 3 341 339 348 346 351 360 351 359 1 10 0 305 299 264 256 248 243 225 234 236 238 240 239 242 253 234 263 263 253 239 228 226 227 226
347 345 349 348 352 1 0 352 325 52 334 338 344 347 351 357 4 1 358 6 16 359 344 338 290 230 251 256 225 231 228 230 235 238 235 246 227 237 249 260 245 229 220 226 226
354 349 348 349 351 355 9 356 59 358 340 333 342 349 358 360 5 3 1 10 10 5 350 340 333 29 7 357 240 238 229 203 202 212 241 246 227 244 249 256 237 217 215 219 227
356 356 345 350 360 4 360 53 47 353 338 349 358 359 354 0 3 1 0 13 10 4 2 338 313 343 1 54 77 220 219 227 221 237 223 229 246 253 244 238 240 223 223 222 234
360 359 354 4 4 353 14 82 57 1 339 3 10 0 357 354 357 6 0 338 2 2 3 346 308 349 11 107 29 44 168 200 214 213 233 257 202 208 216 227 237 250 241 232 246
2 358 3 9 3 357 56 60 18 356 4 3 2 354 352 350 346 353 355 338 343 350 351 352 345 332 23 17 30 38 35 18 290 306 204 159 229 359 228 223 238 247 249 247 242
7 6 7 9 356 41 47 48 4 8 359 6 356 352 350 340 344 344 339 336 331 341 353 352 349 337 333 218 25 16 22 32 14 340 351 278 64 23 246 231 224 235 238 235 227
14 11 2 6 23 36 38 16 360 342 353 355 0 340 330 342 339 331 322 327 333 345 353 349 345 344 352 348 339 354 353 2 5 326 358 334 30 75 137 175 203 223 212 209 205
10 12 5 6 15 4 12 353 341 340 345 348 315 321 332 332 331 316 323 328 336 337 337 327 322 344 308 307 321 325 332 345 354 346 327 53 6 84 100 128 185 203 209 205 188
12 10 6 3 356 4 350 327 339 338 337 328 320 333 335 329 332 321 323 324 332 340 340 337 314 325 309 311 327 330 326 324 306 284 265 343 354 41 99 135 200 214 215 219 219
13 19 2 357 356 346 343 344 335 335 334 321 324 320 323 322 316 315 319 319 321 332 331 329 305 314 319 329 335 326 349 346 303 331 283 334 21 65 119 143 171 218 234 230 223
3 15 359 355 349 347 343 337 335 327 321 320 319 314 312 310 304 301 305 302 306 314 337 327 310 309 299 312 324 315 9 346 347 349 325 41 354 103 120 135 153 191 215 230 222